THOR ABLESTAR DEB, 19293

Orbit data source: Space-Track

THOR ABLESTAR DEB, 19293 is space debris in LEO originally from a launch on Thu, 29 Jun 1961 UTC launched from the Air Force Eastern Test Range (AFETR). Debris objects in space refer to the collection of defunct objects orbiting the Earth. Examples of debris include non-operational satellites, rocket bodies, and fragments generated from explosions, collisions, or faulty payload assembly.

Loading next visibility...
Identifier
19293, 1961-015MA
Orbit
LEO
Country
Flag of USUS
Related business
Manufacturer
Unknown
Mission
Spacecraft
Bus & Motor
Unknown
Mass
Unknown
Launch date (UTC)
1961-06-29 (64 years ago)
Launch vehicle
Unknown
Launch site
Air Force Eastern Test Range (AFETR)
Object type
Payload
Rocket body
Debris
Shape & HBR
Unknown shape, 0.1 m
Radar Cross Section
Small (<0.1 m²)

Expand to show TLE details & history
Last TLE update: 1 day ago

TLE from 1 day ago
0 THOR ABLESTAR DEB
1 19293U 61015MA  25299.25935671  .00000531  00000-0  12411-2 0  9992
2 19293  66.9885  27.7093 0334241 347.7068  41.5319 13.12586274797036
Epoch: 2025-10-26T06:13Z
TLE epoch observation values (Epoch: 2025-10-26T06:13:28.419Z)
Latitude
29.12889°
Longitude
-86.91949°
Altitude
1,029.831 km
Speed
7.429 km/s
True Right ascension
02h 45m 18s
True Declination
28° 59' 18"
Sunlit
Object was in full shadow at epoch
Visualization orbit readout
Latitude
Unknown
Longitude
Unknown
Altitude
Unknown
Speed
Unknown
Apparent Right ascension
Unknown
Apparent Declination
Unknown
Sunlit
N/A
Visualization observer readout
Local Sidereal Time
03:47:05
Azimuth
Unknown
Elevation
Unknown
Doppler factor
Unknown
Orbital elements
Apogee altitude
1,465.282 km
Perigee altitude
957.922 km
Semi-major axis
7,589.739 km
Eccentricity
0.03342
Inclination
66.9885°
RAAN
27.7093°
Arg. of periapsis
347.7068°
True anomaly
44.15237°
Mean anomaly
41.5319°
Eccentric anomaly
42.8339°
Mean motion
3.28249 °/min
Orbital period
109.67 mins
BSTAR
0.0012411
Loading maneuver chart data...
Computing Atmospheric mass density...

Documentation

Showing up to 5 results
|